FENGYUN 1C DEB *, 49389

Orbit data source: Space-Track

FENGYUN 1C DEB *, 49389 is space debris in SSO originally from a launch on Mon, 10 May 1999 UTC launched from the Taiyaun Space Center, China (TSC). Fengyun 1C debris stems from the Chinese weather satellite Fengyun-1C, which was intentionally destroyed by a Chinese anti-satellite missile in 2007. This event dramatically increased the amount of space debris, with thousands of trackable fragments posing hazards to satellites and human spaceflight. The Fengyun 1C debris cloud has become a focal point in discussions about space sustainability and the need for international regulations to prevent the creation of new debris.

Loading next visibility...
Identifier
49389, 1999-025FCJ
Orbit
SSO
Country
Flag of CNCN / PRC
Related business
Manufacturer
Unknown
Mission
Spacecraft
Bus & Motor
Unknown
Mass
Unknown
Launch date (UTC)
1999-05-10 (27 years ago)
Launch vehicle
Unknown
Launch site
Taiyaun Space Center, China (TSC)
Object type
Payload
Rocket body
Debris
Shape & HBR
Unknown shape, 0.1 m
Radar Cross Section
Small (<0.1 m²)

Expand to show TLE details & history
Last TLE update: 2 months ago

TLE from 2 months ago
0 FENGYUN 1C DEB *
1 49389U 99025FCJ 26100.24522416  .00002803  00000-0  17643-2 0  9999
2 49389  98.7067 290.2881 0135834 219.7078 139.4083 14.00642553245076
Epoch: 2026-04-10T05:53Z
TLE epoch observation values (Epoch: 2026-04-10T05:53:07.367Z)
Latitude
0.00003°
Longitude
3.52575°
Altitude
970.018 km
Speed
7.328 km/s
True Right ascension
19h 21m 09s
True Declination
0° 00' 00"
Sunlit
Object was in daylight at epoch
Visualization orbit readout
Latitude
Unknown
Longitude
Unknown
Altitude
Unknown
Speed
Unknown
Apparent Right ascension
Unknown
Apparent Declination
Unknown
Sunlit
N/A
Visualization observer readout
Local Sidereal Time
21:43:17
Azimuth
Unknown
Elevation
Unknown
Doppler factor
Unknown
Orbital elements
Apogee altitude
987.464 km
Perigee altitude
790.045 km
Semi-major axis
7,266.892 km
Eccentricity
0.01358
Inclination
98.7067°
RAAN
290.2881°
Arg. of periapsis
219.7078°
True anomaly
140.40814°
Mean anomaly
139.4083°
Eccentric anomaly
139.9095°
Mean motion
3.50365 °/min
Orbital period
102.75 mins
BSTAR
0.0017643
Loading maneuver chart data...
Computing Atmospheric mass density...
Loading historical data...
Loading historical data...
Loading historical data...
Loading historical data...
Loading historical data...
Loading historical data...
Loading historical data...

Documentation

Showing up to 5 results
|